QPF
0.00 0.01 0.01 0.01 0.00 0.00 0.00 0.00 0.00 0.01 0.01 0.00 0.00 0.00 0.00 0.00 0.00 0.00 0.00 0.00 0.00 0.00 0.00 0.00 0.00 0.00 0.00 0.00 0.00 0.00 0.00 0.00 0.00 0.00 0.00 0.00 0.00 0.00 0.00 0.00 0.00 0.01 0.01 0.01
0.00 0.00 0.00 0.00 0.00 0.00 0.00 0.00 0.00 0.00 0.00 0.00 0.00 0.00 0.00 0.00 0.00 0.00 0.00 0.00 0.00 0.00 0.00 0.00 0.00 0.00 0.00 0.00 0.00 0.00 0.00 0.00 0.00 0.00 0.00 0.00 0.00 0.00 0.00 0.00 0.01 0.01 0.01 0.01
0.00 0.00 0.00 0.00 0.00 0.00 0.00 0.00 0.00 0.00 0.00 0.00 0.00 0.00 0.00 0.00 0.00 0.00 0.00 0.00 0.00 0.00 0.00 0.00 0.00 0.00 0.00 0.00 0.00 0.00 0.00 0.00 0.00 0.00 0.00 0.00 0.00 0.00 0.00 0.01 0.01 0.01 0.01 0.01
0.00 0.00 0.00 0.00 0.00 0.00 0.00 0.00 0.00 0.00 0.00 0.00 0.00 0.00 0.00 0.00 0.00 0.00 0.00 0.00 0.00 0.00 0.00 0.00 0.00 0.00 0.00 0.00 0.00 0.00 0.00 0.00 0.00 0.00 0.00 0.00 0.00 0.00 0.01 0.01 0.01 0.01 0.01 0.01
0.00 0.00 0.01 0.01 0.01 0.01 0.00 0.00 0.00 0.00 0.00 0.00 0.00 0.00 0.00 0.00 0.00 0.00 0.00 0.00 0.00 0.00 0.00 0.00 0.00 0.00 0.00 0.00 0.00 0.00 0.00 0.00 0.00 0.00 0.00 0.00 0.00 0.00 0.01 0.01 0.01 0.01 0.01 0.02
0.00 0.01 0.01 0.01 0.02 0.02 0.01 0.01 0.00 0.00 0.00 0.00 0.00 0.00 0.00 0.00 0.00 0.00 0.00 0.00 0.00 0.00 0.00 0.00 0.00 0.00 0.00 0.00 0.00 0.00 0.00 0.00 0.00 0.00 0.00 0.00 0.00 0.00 0.01 0.01 0.01 0.01 0.01 0.01
0.01 0.02 0.02 0.03 0.03 0.03 0.04 0.06 0.03 0.01 0.00 0.00 0.01 0.01 0.01 0.00 0.00 0.00 0.00 0.00 0.00 0.00 0.00 0.00 0.00 0.00 0.00 0.00 0.00 0.00 0.00 0.00 0.00 0.00 0.00 0.00 0.00 0.00 0.01 0.01 0.01 0.01 0.01 0.02
0.03 0.07 0.07 0.07 0.07 0.11 0.13 0.08 0.04 0.01 0.01 0.01 0.01 0.00 0.00 0.00 0.00 0.00 0.00 0.00 0.00 0.00 0.00 0.00 0.00 0.00 0.00 0.00 0.00 0.00 0.00 0.00 0.00 0.00 0.00 0.00 0.00 0.00 0.01 0.01 0.01 0.02 0.03 0.03
0.03 0.10 0.12 0.12 0.14 0.14 0.12 0.08 0.04 0.03 0.02 0.01 0.00 0.00 0.00 0.00 0.00 0.00 0.00 0.00 0.00 0.00 0.00 0.00 0.00 0.00 0.00 0.00 0.00 0.00 0.00 0.00 0.00 0.00 0.00 0.00 0.00 0.00 0.01 0.01 0.02 0.01 0.01 0.01
0.02 0.07 0.10 0.09 0.09 0.07 0.05 0.03 0.02 0.01 0.00 0.00 0.00 0.00 0.00 0.00 0.00 0.00 0.00 0.00 0.00 0.00 0.00 0.00 0.00 0.00 0.00 0.00 0.00 0.00 0.00 0.00 0.00 0.00 0.00 0.00 0.00 0.00 0.00 0.01 0.01 0.01 0.01 0.01
0.04 0.07 0.07 0.06 0.04 0.02 0.01 0.00 0.00 0.00 0.00 0.00 0.00 0.00 0.00 0.00 0.00 0.00 0.00 0.00 0.00 0.00 0.00 0.00 0.00 0.00 0.00 0.00 0.00 0.00 0.00 0.00 0.00 0.00 0.00 0.00 0.00 0.00 0.00 0.00 0.00 0.00 0.00 0.00
0.04 0.05 0.03 0.03 0.01 0.01 0.00 0.00 0.00 0.00 0.00 0.00 0.00 0.00 0.00 0.00 0.00 0.00 0.00 0.00 0.00 0.00 0.00 0.00 0.00 0.00 0.00 0.00 0.00 0.01 0.01 0.01 0.00 0.00 0.00 0.00 0.00 0.00 0.00 0.00 0.00 0.00 0.00 0.00
0.01 0.00 0.00 0.00 0.00 0.00 0.00 0.00 0.00 0.00 0.00 0.00 0.00 0.00 0.00 0.00 0.00 0.00 0.00 0.00 0.00 0.00 0.00 0.00 0.00 0.00 0.00 0.00 0.01 0.01 0.01 0.01 0.00 0.00 0.00 0.00 0.00 0.00 0.01 0.01 0.01 0.00 0.00 0.00
0.01 0.01 0.01 0.00 0.00 0.00 0.00 0.00 0.00 0.00 0.00 0.00 0.00 0.00 0.00 0.00 0.00 0.00 0.00 0.00 0.00 0.00 0.00 0.00 0.00 0.00 0.00 0.00 0.01 0.01 0.01 0.01 0.01 0.00 0.00 0.00 0.01 0.01 0.00 0.01 0.03 0.04 0.03 0.02
0.01 0.01 0.01 0.00 0.00 0.00 0.00 0.00 0.00 0.00 0.00 0.00 0.00 0.00 0.00 0.00 0.00 0.00 0.00 0.00 0.00 0.00 0.00 0.00 0.00 0.00 0.01 0.01 0.01 0.02 0.02 0.01 0.01 0.01 0.01 0.01 0.00 0.00 0.01 0.01 0.03 0.04 0.03 0.04
0.02 0.01 0.01 0.00 0.00 0.00 0.00 0.00 0.00 0.00 0.00 0.00 0.00 0.00 0.00 0.00 0.00 0.00 0.00 0.00 0.00 0.00 0.01 0.01 0.01 0.01 0.01 0.01 0.02 0.03 0.03 0.02 0.02 0.01 0.00 0.00 0.00 0.00 0.01 0.02 0.03 0.04 0.03 0.04
0.01 0.01 0.01 0.00 0.00 0.00 0.00 0.00 0.00 0.00 0.00 0.00 0.00 0.00 0.00 0.00 0.00 0.00 0.00 0.00 0.00 0.00 0.01 0.01 0.02 0.02 0.02 0.02 0.03 0.02 0.02 0.02 0.02 0.01 0.00 0.00 0.00 0.00 0.01 0.02 0.03 0.03 0.04 0.05
0.00 0.00 0.00 0.00 0.00 0.00 0.00 0.00 0.00 0.00 0.00 0.00 0.00 0.00 0.00 0.00 0.00 0.00 0.00 0.00 0.00 0.00 0.01 0.02 0.02 0.01 0.02 0.02 0.02 0.02 0.02 0.01 0.01 0.01 0.01 0.00 0.01 0.01 0.01 0.03 0.03 0.04 0.06 0.07
0.00 0.00 0.00 0.00 0.00 0.00 0.00 0.00 0.00 0.00 0.00 0.00 0.00 0.00 0.00 0.00 0.00 0.00 0.00 0.00 0.00 0.00 0.01 0.01 0.00 0.00 0.00 0.00 0.01 0.01 0.01 0.01 0.01 0.01 0.01 0.01 0.01 0.02 0.03 0.04 0.05 0.07 0.07 0.07
0.00 0.00 0.00 0.00 0.00 0.00 0.00 0.00 0.00 0.00 0.00 0.00 0.00 0.00 0.00 0.00 0.00 0.00 0.00 0.00 0.00 0.00 0.00 0.00 0.00 0.00 0.00 0.00 0.00 0.00 0.00 0.00 0.00 0.01 0.01 0.01 0.02 0.03 0.04 0.06 0.08 0.10 0.09 0.07
0.00 0.00 0.00 0.00 0.00 0.00 0.00 0.00 0.00 0.00 0.00 0.00 0.00 0.00 0.00 0.00 0.00 0.00 0.00 0.00 0.00 0.00 0.00 0.00 0.00 0.00 0.00 0.00 0.00 0.00 0.00 0.00 0.01 0.01 0.01 0.02 0.03 0.05 0.07 0.09 0.11 0.10 0.07 0.07
0.00 0.00 0.00 0.00 0.00 0.00 0.00 0.00 0.00 0.00 0.00 0.00 0.00 0.00 0.00 0.00 0.00 0.00 0.00 0.00 0.00 0.00 0.00 0.00 0.00 0.00 0.00 0.00 0.00 0.00 0.01 0.01 0.01 0.02 0.03 0.05 0.06 0.07 0.08 0.11 0.12 0.10 0.09 0.09
0.00 0.00 0.00 0.00 0.00 0.00 0.00 0.00 0.00 0.00 0.00 0.00 0.00 0.00 0.00 0.00 0.00 0.00 0.00 0.00 0.00 0.00 0.00 0.00 0.00 0.00 0.00 0.00 0.00 0.01 0.01 0.02 0.03 0.04 0.05 0.07 0.07 0.07 0.09 0.12 0.12 0.11 0.11 0.09
0.00 0.00 0.00 0.00 0.00 0.00 0.00 0.00 0.00 0.00 0.00 0.00 0.00 0.00 0.00 0.00 0.00 0.00 0.00 0.00 0.00 0.00 0.00 0.00 0.00 0.00 0.00 0.01 0.02 0.04 0.05 0.06 0.06 0.06 0.06 0.07 0.08 0.09 0.11 0.13 0.13 0.12 0.10 0.07
0.00 0.00 0.00 0.00 0.00 0.00 0.00 0.00 0.00 0.00 0.00 0.00 0.00 0.00 0.00 0.00 0.00 0.00 0.00 0.00 0.00 0.00 0.00 0.01 0.01 0.01 0.02 0.04 0.06 0.07 0.07 0.07 0.07 0.07 0.07 0.09 0.10 0.12 0.12 0.12 0.10 0.10 0.09 0.06
0.00 0.00 0.00 0.00 0.00 0.00 0.00 0.00 0.00 0.00 0.00 0.00 0.00 0.00 0.00 0.00 0.00 0.00 0.00 0.00 0.00 0.00 0.01 0.01 0.02 0.03 0.04 0.06 0.08 0.08 0.08 0.08 0.07 0.08 0.09 0.10 0.11 0.11 0.11 0.10 0.08 0.07 0.06 0.04
0.00 0.00 0.00 0.00 0.00 0.00 0.00 0.00 0.00 0.00 0.00 0.00 0.00 0.00 0.00 0.00 0.00 0.00 0.00 0.01 0.01 0.00 0.01 0.02 0.03 0.04 0.05 0.06 0.07 0.06 0.07 0.07 0.08 0.09 0.10 0.10 0.09 0.08 0.09 0.10 0.08 0.06 0.04 0.03
MSLP
1009.10 1008.83 1008.57 1008.33 1008.15 1008.00 1007.88 1007.77 1007.64 1007.48 1007.28 1007.06 1006.84 1006.64 1006.50 1006.45 1006.51 1006.70 1007.00 1007.42 1007.93 1008.50 1009.11 1009.73 1010.34 1010.91 1011.42 1011.87 1012.24 1012.52 1012.73 1012.87 1012.95 1012.98 1012.98 1012.98 1012.98 1013.00 1013.05 1013.11 1013.19 1013.27 1013.35 1013.40
1009.15 1008.86 1008.53 1008.19 1007.87 1007.58 1007.32 1007.10 1006.90 1006.71 1006.55 1006.40 1006.28 1006.20 1006.17 1006.22 1006.35 1006.58 1006.90 1007.30 1007.79 1008.33 1008.91 1009.51 1010.10 1010.66 1011.17 1011.61 1011.98 1012.26 1012.47 1012.59 1012.66 1012.69 1012.69 1012.68 1012.68 1012.71 1012.76 1012.82 1012.90 1012.98 1013.04 1013.08
1009.11 1008.86 1008.53 1008.15 1007.75 1007.36 1006.99 1006.66 1006.38 1006.14 1005.95 1005.82 1005.74 1005.72 1005.76 1005.87 1006.05 1006.30 1006.63 1007.02 1007.48 1008.00 1008.55 1009.13 1009.71 1010.27 1010.79 1011.24 1011.63 1011.94 1012.16 1012.31 1012.39 1012.43 1012.44 1012.43 1012.44 1012.45 1012.48 1012.53 1012.59 1012.63 1012.67 1012.68
1009.00 1008.84 1008.58 1008.22 1007.81 1007.36 1006.91 1006.48 1006.10 1005.78 1005.53 1005.35 1005.26 1005.24 1005.30 1005.43 1005.62 1005.88 1006.20 1006.58 1007.02 1007.51 1008.04 1008.61 1009.18 1009.75 1010.29 1010.78 1011.20 1011.55 1011.82 1012.01 1012.13 1012.20 1012.22 1012.22 1012.22 1012.21 1012.21 1012.22 1012.22 1012.22 1012.21 1012.18
1008.88 1008.85 1008.68 1008.39 1008.01 1007.54 1007.04 1006.53 1006.06 1005.64 1005.29 1005.04 1004.89 1004.83 1004.85 1004.96 1005.14 1005.38 1005.69 1006.04 1006.46 1006.92 1007.43 1007.98 1008.56 1009.14 1009.71 1010.24 1010.71 1011.12 1011.45 1011.69 1011.86 1011.96 1012.01 1012.02 1011.99 1011.96 1011.91 1011.86 1011.81 1011.74 1011.67 1011.59
1008.76 1008.85 1008.81 1008.62 1008.29 1007.84 1007.32 1006.76 1006.20 1005.68 1005.24 1004.89 1004.65 1004.52 1004.50 1004.56 1004.70 1004.91 1005.18 1005.50 1005.88 1006.32 1006.80 1007.33 1007.90 1008.49 1009.08 1009.65 1010.17 1010.64 1011.03 1011.33 1011.55 1011.69 1011.76 1011.76 1011.73 1011.65 1011.56 1011.45 1011.33 1011.21 1011.08 1010.96
1008.63 1008.85 1008.92 1008.83 1008.58 1008.18 1007.66 1007.07 1006.45 1005.86 1005.33 1004.90 1004.58 1004.38 1004.29 1004.30 1004.39 1004.56 1004.79 1005.07 1005.41 1005.80 1006.24 1006.74 1007.28 1007.86 1008.45 1009.04 1009.60 1010.11 1010.55 1010.90 1011.17 1011.34 1011.42 1011.42 1011.37 1011.26 1011.12 1010.96 1010.79 1010.62 1010.46 1010.32
1008.47 1008.78 1008.96 1008.97 1008.80 1008.45 1007.97 1007.38 1006.75 1006.12 1005.54 1005.06 1004.68 1004.43 1004.29 1004.26 1004.31 1004.43 1004.61 1004.84 1005.11 1005.45 1005.83 1006.27 1006.76 1007.30 1007.87 1008.45 1009.02 1009.54 1010.01 1010.39 1010.68 1010.86 1010.95 1010.95 1010.87 1010.74 1010.57 1010.38 1010.18 1009.99 1009.83 1009.70
1008.26 1008.64 1008.89 1008.98 1008.89 1008.61 1008.18 1007.64 1007.03 1006.41 1005.84 1005.35 1004.96 1004.69 1004.53 1004.47 1004.49 1004.57 1004.70 1004.87 1005.08 1005.33 1005.64 1005.99 1006.41 1006.88 1007.39 1007.92 1008.45 1008.96 1009.41 1009.79 1010.07 1010.26 1010.34 1010.32 1010.23 1010.08 1009.89 1009.69 1009.50 1009.33 1009.19 1009.10
1007.99 1008.40 1008.70 1008.85 1008.83 1008.63 1008.27 1007.80 1007.27 1006.72 1006.20 1005.75 1005.41 1005.16 1005.02 1004.96 1004.97 1005.02 1005.10 1005.21 1005.34 1005.50 1005.70 1005.95 1006.25 1006.62 1007.03 1007.48 1007.94 1008.39 1008.79 1009.12 1009.38 1009.53 1009.58 1009.55 1009.44 1009.28 1009.10 1008.91 1008.74 1008.62 1008.54 1008.52
1007.69 1008.10 1008.42 1008.61 1008.64 1008.52 1008.26 1007.89 1007.46 1007.02 1006.61 1006.26 1006.00 1005.82 1005.73 1005.70 1005.72 1005.75 1005.79 1005.84 1005.88 1005.94 1006.02 1006.14 1006.32 1006.55 1006.84 1007.17 1007.52 1007.87 1008.18 1008.44 1008.62 1008.72 1008.73 1008.67 1008.54 1008.38 1008.20 1008.05 1007.93 1007.86 1007.86 1007.92
1007.39 1007.78 1008.10 1008.32 1008.40 1008.35 1008.19 1007.94 1007.65 1007.35 1007.07 1006.86 1006.71 1006.64 1006.62 1006.64 1006.67 1006.70 1006.71 1006.70 1006.66 1006.61 1006.58 1006.57 1006.60 1006.69 1006.83 1007.02 1007.23 1007.45 1007.64 1007.80 1007.88 1007.90 1007.85 1007.73 1007.58 1007.41 1007.25 1007.13 1007.07 1007.07 1007.14 1007.28
1007.17 1007.53 1007.84 1008.07 1008.19 1008.22 1008.15 1008.03 1007.87 1007.72 1007.60 1007.53 1007.51 1007.54 1007.61 1007.69 1007.75 1007.78 1007.76 1007.69 1007.57 1007.43 1007.29 1007.15 1007.05 1007.00 1006.99 1007.03 1007.09 1007.16 1007.22 1007.24 1007.22 1007.14 1007.00 1006.83 1006.64 1006.46 1006.31 1006.21 1006.19 1006.25 1006.38 1006.58
1007.09 1007.43 1007.72 1007.95 1008.11 1008.19 1008.22 1008.20 1008.18 1008.17 1008.19 1008.25 1008.35 1008.48 1008.62 1008.74 1008.83 1008.85 1008.81 1008.69 1008.52 1008.30 1008.06 1007.82 1007.60 1007.42 1007.28 1007.17 1007.09 1007.02 1006.93 1006.82 1006.67 1006.48 1006.25 1006.01 1005.77 1005.56 1005.41 1005.33 1005.33 1005.43 1005.60 1005.84
1007.22 1007.53 1007.80 1008.03 1008.20 1008.33 1008.42 1008.50 1008.58 1008.68 1008.81 1008.97 1009.16 1009.36 1009.55 1009.70 1009.79 1009.81 1009.74 1009.59 1009.37 1009.09 1008.78 1008.47 1008.16 1007.88 1007.63 1007.41 1007.20 1006.99 1006.77 1006.52 1006.25 1005.95 1005.63 1005.31 1005.02 1004.77 1004.60 1004.52 1004.53 1004.63 1004.82 1005.06
1007.57 1007.85 1008.10 1008.32 1008.50 1008.64 1008.78 1008.91 1009.06 1009.22 1009.42 1009.64 1009.88 1010.11 1010.31 1010.46 1010.54 1010.54 1010.44 1010.26 1010.01 1009.70 1009.35 1008.99 1008.64 1008.29 1007.96 1007.65 1007.34 1007.02 1006.68 1006.32 1005.93 1005.53 1005.12 1004.73 1004.38 1004.09 1003.89 1003.79 1003.79 1003.88 1004.05 1004.27
1008.09 1008.36 1008.58 1008.78 1008.95 1009.10 1009.24 1009.40 1009.56 1009.76 1009.97 1010.20 1010.43 1010.64 1010.82 1010.93 1010.98 1010.94 1010.82 1010.62 1010.35 1010.03 1009.68 1009.31 1008.93 1008.56 1008.19 1007.82 1007.44 1007.04 1006.61 1006.15 1005.67 1005.18 1004.69 1004.23 1003.82 1003.49 1003.26 1003.13 1003.11 1003.18 1003.32 1003.51
1008.74 1008.98 1009.18 1009.35 1009.49 1009.62 1009.75 1009.89 1010.04 1010.20 1010.39 1010.57 1010.75 1010.91 1011.02 1011.08 1011.07 1010.99 1010.84 1010.63 1010.36 1010.05 1009.71 1009.36 1009.00 1008.63 1008.25 1007.85 1007.43 1006.97 1006.47 1005.94 1005.39 1004.82 1004.27 1003.76 1003.30 1002.94 1002.67 1002.52 1002.47 1002.51 1002.63 1002.78
1009.41 1009.61 1009.78 1009.92 1010.03 1010.12 1010.21 1010.30 1010.40 1010.51 1010.62 1010.72 1010.82 1010.88 1010.91 1010.89 1010.81 1010.69 1010.51 1010.29 1010.03 1009.75 1009.45 1009.14 1008.81 1008.47 1008.11 1007.71 1007.26 1006.77 1006.23 1005.65 1005.04 1004.41 1003.81 1003.26 1002.77 1002.38 1002.10 1001.92 1001.86 1001.88 1001.97 1002.10
1009.99 1010.17 1010.30 1010.39 1010.46 1010.51 1010.54 1010.57 1010.60 1010.62 1010.64 1010.64 1010.63 1010.59 1010.51 1010.40 1010.26 1010.09 1009.89 1009.67 1009.44 1009.20 1008.95 1008.70 1008.42 1008.12 1007.79 1007.40 1006.95 1006.43 1005.86 1005.24 1004.58 1003.92 1003.29 1002.70 1002.20 1001.79 1001.50 1001.32 1001.25 1001.27 1001.35 1001.47
1010.43 1010.56 1010.66 1010.71 1010.73 1010.73 1010.71 1010.67 1010.62 1010.55 1010.46 1010.36 1010.23 1010.08 1009.91 1009.72 1009.52 1009.31 1009.09 1008.89 1008.69 1008.50 1008.31 1008.12 1007.90 1007.65 1007.35 1006.98 1006.53 1006.00 1005.40 1004.75 1004.06 1003.37 1002.71 1002.11 1001.59 1001.19 1000.90 1000.73 1000.67 1000.70 1000.80 1000.92
1010.66 1010.76 1010.82 1010.83 1010.82 1010.77 1010.70 1010.60 1010.47 1010.32 1010.14 1009.93 1009.70 1009.46 1009.20 1008.94 1008.69 1008.46 1008.24 1008.06 1007.91 1007.77 1007.65 1007.52 1007.36 1007.16 1006.89 1006.53 1006.08 1005.55 1004.93 1004.25 1003.53 1002.82 1002.13 1001.52 1001.01 1000.61 1000.34 1000.19 1000.15 1000.21 1000.33 1000.48
1010.69 1010.75 1010.78 1010.77 1010.73 1010.65 1010.54 1010.38 1010.20 1009.97 1009.72 1009.43 1009.12 1008.80 1008.48 1008.17 1007.89 1007.65 1007.46 1007.31 1007.20 1007.13 1007.07 1007.00 1006.90 1006.74 1006.50 1006.16 1005.71 1005.16 1004.53 1003.82 1003.08 1002.35 1001.66 1001.04 1000.53 1000.15 999.89 999.77 999.77 999.85 1000.00 1000.19
1010.55 1010.59 1010.59 1010.57 1010.51 1010.41 1010.27 1010.09 1009.86 1009.59 1009.28 1008.93 1008.57 1008.20 1007.84 1007.51 1007.22 1006.99 1006.82 1006.71 1006.66 1006.64 1006.65 1006.64 1006.59 1006.47 1006.26 1005.94 1005.49 1004.94 1004.29 1003.57 1002.82 1002.07 1001.37 1000.76 1000.26 999.89 999.66 999.56 999.58 999.70 999.88 1000.10
1010.29 1010.32 1010.31 1010.29 1010.23 1010.12 1009.97 1009.77 1009.52 1009.22 1008.88 1008.50 1008.10 1007.71 1007.34 1007.00 1006.72 1006.52 1006.38 1006.32 1006.32 1006.37 1006.43 1006.48 1006.47 1006.40 1006.22 1005.91 1005.48 1004.94 1004.29 1003.57 1002.81 1002.07 1001.37 1000.76 1000.27 999.91 999.70 999.63 999.68 999.82 1000.02 1000.26
1009.99 1010.01 1010.01 1009.99 1009.93 1009.83 1009.68 1009.48 1009.22 1008.91 1008.56 1008.17 1007.77 1007.37 1007.00 1006.68 1006.43 1006.25 1006.16 1006.15 1006.20 1006.30 1006.42 1006.52 1006.56 1006.53 1006.38 1006.11 1005.70 1005.18 1004.55 1003.85 1003.11 1002.38 1001.69 1001.10 1000.62 1000.28 1000.09 1000.03 1000.08 1000.23 1000.45 1000.69
1009.72 1009.74 1009.74 1009.72 1009.67 1009.58 1009.44 1009.24 1008.99 1008.69 1008.34 1007.96 1007.57 1007.19 1006.84 1006.55 1006.33 1006.19 1006.15 1006.18 1006.28 1006.43 1006.59 1006.73 1006.83 1006.83 1006.73 1006.50 1006.14 1005.65 1005.06 1004.40 1003.70 1003.00 1002.35 1001.78 1001.33 1001.00 1000.81 1000.75 1000.81 1000.95 1001.15 1001.38
Thickness
5779 5781 5776 5774 5781 5789 5787 5783 5771 5771 5772 5781 5789 5792 5793 5793 5791 5785 5779 5774 5768 5760 5754 5749 5743 5738 5733 5729 5725 5720 5714 5708 5704 5700 5696 5691 5686 5681 5676 5672 5667 5662 5657 5651
5771 5784 5785 5782 5790 5794 5792 5791 5787 5784 5782 5797 5799 5797 5792 5790 5786 5779 5774 5770 5766 5760 5753 5747 5741 5736 5732 5727 5722 5717 5710 5705 5702 5697 5692 5687 5683 5678 5673 5668 5663 5658 5652 5646
5754 5775 5775 5766 5785 5790 5791 5795 5791 5780 5785 5795 5791 5788 5786 5785 5782 5777 5773 5770 5765 5759 5753 5746 5741 5736 5730 5725 5720 5714 5708 5703 5699 5694 5689 5684 5680 5675 5669 5664 5658 5653 5647 5641
5755 5758 5740 5775 5804 5802 5795 5796 5800 5796 5795 5795 5792 5791 5791 5788 5781 5776 5774 5770 5766 5760 5754 5748 5743 5736 5729 5724 5718 5711 5706 5701 5697 5691 5686 5681 5675 5670 5664 5659 5653 5647 5641 5636
5751 5747 5757 5779 5788 5784 5775 5779 5796 5795 5794 5793 5794 5789 5785 5788 5784 5778 5775 5771 5766 5762 5756 5750 5742 5735 5727 5721 5715 5709 5704 5699 5695 5689 5683 5676 5670 5665 5660 5654 5648 5642 5637 5631
5750 5740 5738 5759 5776 5785 5773 5755 5781 5786 5785 5787 5783 5764 5767 5782 5782 5778 5775 5771 5765 5761 5755 5746 5740 5734 5724 5716 5711 5706 5702 5697 5692 5686 5678 5672 5666 5661 5655 5649 5643 5638 5633 5627
5746 5741 5749 5761 5773 5769 5737 5733 5760 5773 5775 5777 5773 5771 5774 5779 5778 5776 5771 5767 5762 5756 5749 5743 5737 5729 5719 5713 5708 5704 5700 5694 5688 5681 5674 5668 5663 5657 5651 5645 5639 5633 5628 5623
5738 5726 5724 5746 5751 5737 5729 5745 5753 5763 5769 5771 5772 5775 5776 5774 5771 5769 5764 5761 5756 5749 5743 5738 5732 5723 5714 5708 5705 5701 5694 5688 5682 5676 5669 5665 5658 5652 5646 5640 5634 5629 5624 5620
5743 5729 5731 5734 5728 5732 5738 5741 5749 5756 5761 5764 5764 5765 5765 5763 5760 5758 5756 5753 5749 5742 5735 5730 5725 5717 5708 5703 5699 5693 5686 5680 5674 5669 5663 5657 5650 5645 5641 5636 5630 5626 5621 5616
5735 5725 5723 5727 5731 5734 5740 5743 5748 5752 5755 5756 5754 5754 5752 5750 5748 5746 5744 5742 5739 5733 5725 5719 5715 5709 5703 5698 5692 5684 5677 5672 5667 5662 5657 5653 5647 5642 5637 5633 5627 5622 5616 5610
5726 5722 5720 5719 5727 5732 5736 5738 5739 5741 5742 5741 5740 5738 5738 5735 5734 5734 5731 5730 5727 5722 5716 5711 5707 5701 5696 5690 5683 5675 5670 5665 5661 5657 5653 5649 5645 5641 5636 5632 5625 5617 5612 5606
5721 5724 5720 5713 5724 5729 5727 5725 5725 5724 5724 5725 5724 5722 5722 5720 5719 5718 5717 5715 5712 5709 5704 5701 5696 5691 5686 5681 5674 5666 5660 5656 5654 5651 5648 5645 5642 5638 5635 5629 5624 5616 5609 5602
5728 5728 5723 5719 5719 5720 5718 5716 5714 5712 5709 5707 5707 5707 5705 5703 5703 5702 5701 5699 5696 5694 5692 5688 5684 5679 5675 5670 5664 5656 5651 5648 5646 5643 5641 5638 5635 5631 5627 5624 5619 5612 5605 5598
5719 5716 5708 5707 5705 5706 5706 5704 5702 5698 5696 5694 5691 5690 5689 5687 5686 5685 5683 5682 5681 5679 5676 5673 5670 5665 5662 5658 5653 5647 5643 5640 5637 5634 5632 5630 5627 5624 5621 5617 5613 5609 5604 5596
5706 5704 5697 5695 5693 5691 5689 5687 5682 5679 5677 5676 5675 5673 5672 5670 5668 5667 5667 5666 5664 5662 5659 5656 5652 5650 5648 5644 5640 5636 5633 5630 5629 5627 5626 5624 5621 5618 5615 5612 5608 5605 5601 5596
5690 5687 5683 5678 5673 5672 5670 5668 5664 5662 5662 5660 5659 5658 5657 5656 5654 5652 5651 5649 5645 5643 5641 5639 5636 5634 5632 5629 5626 5624 5623 5620 5618 5617 5616 5615 5613 5610 5608 5605 5602 5598 5595 5591
5672 5666 5662 5659 5657 5655 5654 5652 5650 5648 5647 5646 5644 5644 5643 5641 5638 5635 5633 5632 5629 5627 5626 5624 5620 5619 5617 5614 5612 5612 5612 5612 5610 5608 5607 5606 5605 5603 5601 5598 5595 5592 5589 5587
5658 5653 5649 5645 5643 5641 5640 5639 5637 5635 5633 5632 5631 5629 5626 5623 5620 5618 5617 5615 5613 5611 5610 5608 5605 5602 5601 5599 5598 5597 5597 5598 5598 5598 5597 5597 5596 5595 5593 5590 5588 5585 5583 5581
5643 5639 5636 5634 5632 5630 5627 5625 5624 5622 5620 5618 5616 5613 5610 5608 5606 5603 5601 5598 5596 5595 5594 5592 5588 5586 5586 5584 5581 5582 5582 5583 5584 5584 5584 5584 5584 5584 5584 5582 5581 5579 5577 5574
5630 5627 5624 5622 5621 5618 5615 5613 5611 5609 5607 5604 5601 5598 5596 5594 5591 5588 5586 5583 5582 5581 5579 5576 5572 5571 5570 5567 5563 5564 5565 5566 5568 5569 5571 5572 5572 5574 5575 5575 5573 5571 5570 5568
5616 5614 5611 5609 5606 5604 5602 5600 5597 5594 5593 5591 5588 5585 5582 5580 5577 5574 5571 5570 5569 5567 5564 5560 5557 5555 5553 5547 5546 5548 5550 5551 5552 5554 5557 5559 5560 5562 5564 5565 5565 5564 5563 5562
5601 5599 5596 5594 5591 5589 5588 5586 5584 5582 5580 5578 5576 5573 5569 5566 5564 5562 5560 5557 5556 5551 5549 5547 5544 5538 5534 5530 5532 5534 5535 5536 5538 5540 5543 5545 5547 5550 5554 5555 5556 5556 5555 5556
5586 5583 5581 5579 5577 5576 5575 5573 5572 5570 5568 5565 5562 5559 5557 5554 5552 5549 5547 5547 5544 5538 5535 5533 5527 5521 5517 5518 5520 5520 5521 5521 5522 5525 5528 5532 5536 5540 5544 5547 5548 5548 5547 5549
5571 5570 5568 5567 5566 5563 5561 5562 5561 5559 5557 5554 5553 5551 5548 5545 5544 5542 5539 5536 5531 5525 5524 5519 5514 5509 5505 5508 5508 5507 5506 5507 5508 5512 5516 5519 5524 5530 5534 5537 5538 5539 5540 5542
5559 5557 5556 5554 5552 5552 5551 5551 5549 5548 5547 5546 5544 5542 5539 5535 5532 5530 5527 5523 5519 5515 5513 5510 5505 5500 5499 5498 5497 5495 5494 5494 5495 5498 5503 5508 5514 5518 5523 5526 5529 5531 5534 5535
5549 5547 5546 5543 5541 5540 5540 5539 5538 5536 5534 5532 5530 5528 5526 5523 5520 5518 5515 5512 5509 5504 5502 5500 5497 5493 5490 5487 5485 5484 5482 5482 5485 5489 5494 5498 5504 5508 5513 5517 5520 5523 5525 5527
5539 5537 5535 5535 5534 5532 5530 5527 5525 5522 5520 5518 5516 5515 5512 5511 5509 5507 5504 5502 5500 5497 5494 5490 5487 5483 5480 5477 5475 5473 5473 5473 5475 5479 5483 5488 5493 5498 5502 5507 5511 5513 5516 5518